Preview of NWS' New Version of Forecast
This preview is not operational and should not be used for support decisions.

Regional Weather Roundup (RWR)

Issued by National Weather Service (NWS)

                            
000
ASUS42 KTBW 220417
RWRFL 
FLORIDA REGIONAL WEATHER ROUNDUP
NATIONAL WEATHER SERVICE TAMPA BAY RUSKIN FL
1200 AM EDT THU AUG 22 2019

NOTE: "FAIR" INDICATES FEW OR NO CLOUDS BELOW 12,000 FEET WITH NO
SIGNIFICANT WEATHER AND/OR OBSTRUCTIONS TO VISIBILITY.

FLZ001>010-012>015-112-114-115-220500-
PANHANDLE FLORIDA
  
CITY           SKY/WX    TMP DP  RH WIND       PRES   REMARKS
PENSACOLA      FAIR      82  78  88 SE6       30.04S                  
PENSACOLA NAS  FAIR      82  77  84 SE6       30.03F                  
MILTON NAS     FAIR      75  74  96 CALM      30.06                   
CRESTVIEW      FAIR      75  73  93 CALM      30.08S                  
DUKE FIELD     FAIR      74  74 100 CALM      30.06S                  
VALPARAISO     FAIR      78  75  91 NE5       30.04S                  
MARY ESTHER    PTCLDY    83  75  78 S7        30.03S                  
TRI COUNTY     FAIR      75  73  93 CALM      30.08S                  
PANAMA CITY    FAIR      76  74  93 NE3       30.06R                  
TYNDALL AFB    FAIR      77  74  91 E5        30.05S                  
APALACHICOLA   FAIR      77  75  93 NE5       30.07R                  

STATION/POSITION SKY/WX   TEMP    WIND        PRES    WAVE   SWELL
                          AIR SEA DIR/SP/G            HT/PER HT/PER
                          (F)     (DEG/KT/KT) (MB)    (FT/S) (FT/S)
30.1N   87.6W              84 86  150/  8/ 12 1017.0S   1/ 7   2/ 7
29.2N   88.2W              84 84  130/  8/ 10 1017.0S   2/ 6   2/ 6
28.8N   86.0W                 85  130/ 12/ 14 1017.3F   2/ 5
PANAMA CITY BEAC                   80/  5/  7   N/A
TOWER C                    83     140/  7/  7 1018.1F
28.5N   84.5W              83     120/  8/ 10 1018.6F   1/ 4   2/ 4

$$
FLZ011-016>038-118-127-128-134-139-239-220500-
NORTH FLORIDA
  
CITY           SKY/WX    TMP DP  RH WIND       PRES   REMARKS
MARIANNA       FAIR      75  75 100 CALM      30.07R                  
TALLAHASSEE    FAIR      79  77  94 CALM      30.07S                  
PERRY          FAIR      77  76  97 E5        30.08S                  
LIVE OAK       CLEAR     77  77 100 CALM      30.08S                  
CROSS CITY     FAIR      78  76  91 CALM      30.08S                  
LAKE CITY      FAIR      77  73  88 SE3       30.10S                  
GAINESVILLE    FAIR      77  74  90 CALM      30.11S                  
WILLISTON      FAIR      76  74  95 CALM      30.08F                  
MAYPORT NAS    FAIR      82  76  81 S8        30.09F                  
JACKSONVILLE   FAIR      79  76  90 SE6       30.08S                  
JAX NAS        FAIR      83  74  74 SE10      30.09F                  
JAX CECIL      FAIR      79  75  89 CALM      30.09S                  
FERNANDINA BEA FAIR      82  77  85 MISG      30.09S                  
ST AUGUSTINE   FAIR      80  77  90 SE6       30.10F                  
PALM COAST     FAIR      76  74  94 SE3       30.09F                  

STATION/POSITION SKY/WX   TEMP    WIND        PRES    WAVE   SWELL
                          AIR SEA DIR/SP/G            HT/PER HT/PER
                          (F)     (DEG/KT/KT) (MB)    (FT/S) (FT/S)
SHELL POINT      NOT AVBL
KEATON BEACH               78      60/  3/  4 1018.5R
CEDAR KEY                  82     180/  4/  4 1018.7F
FERNANDINA                 86 85              1019.6F
30.7N   81.3W                 83                N/A     2/11
MAYPORT                    82 85  160/  4/  6 1019.4F
31.4N   80.9W              83 83  180/ 12/ 14 1018.6S   2/11   2/11
ST AUGUSTINE               82 83  140/  9/  9 1019.0F

$$
FLZ040-043>046-052-053-057-058-063-144-220500-
INTERIOR CENTRAL FLORIDA
  
CITY           SKY/WX    TMP DP  RH WIND       PRES   REMARKS
OCALA          FAIR      79  75  87 E5        30.09F                  
LEESBURG       FAIR      82  74  76 SE8       30.10S                  
SANFORD        FAIR      80  75  84 CALM      30.09S                  
ORLANDO EXEC   FAIR      80  74  81 E5        30.09F                  
ORLANDO INTL   MOCLDY    79  74  84 E5        30.09F                  
KISSIMMEE      FAIR      80  76  87 CALM      30.10S                  
WINTER HAVEN   FAIR      82  75  79 E7        30.10S                  
SEBRING        FAIR      78  75  91 E5        30.09S                  
OKEECHOBEE     FAIR      77  73  88 CALM      30.07F                  

$$
FLZ041-047-054-059-064-141-147-220500-
EAST CENTRAL FLORIDA
  
CITY           SKY/WX    TMP DP  RH WIND       PRES   REMARKS
DAYTONA BEACH  FAIR      81  76  84 CALM      30.09F                  
DELAND         FAIR      79  75  89 SE5       30.09F                  
JFK SPACE CTR  FAIR      77  59  52 CALM      30.08S                  
CAPE CANAVERAL FAIR      79  78  99 CALM      30.08R                  
PATRICK AFB    FAIR      83  79  90 SE9       30.08S                  
MELBOURNE      FAIR      84  76  76 E10       30.08S                  
VERO BEACH     FAIR      81  74  79 E7        30.08S                  
FT PIERCE      FAIR      82  73  74 E7        30.07F                  
STUART         FAIR      81  73  78 E5        30.08F                  

STATION/POSITION SKY/WX   TEMP    WIND        PRES    WAVE   SWELL
                          AIR SEA DIR/SP/G            HT/PER HT/PER
                          (F)     (DEG/KT/KT) (MB)    (FT/S) (FT/S)
28.5N   80.2W              84 84  110/ 12/ 14 1018.6F   2/ 7   2/ 7
28.9N   78.5W              83 86  130/ 12/ 14 1019.6F   2/11   2/11
TRIDENT PIER               81 83  100/  6/  9 1020.3R
28.4N   80.5W                 82                N/A     2/ 3
27.5N   80.2W                 84                N/A     2/11

$$
FLZ050-056-061-142-242-148-248-149-249-151-251-155-255-
160-260-220500-
WEST CENTRAL FLORIDA
  
CITY           SKY/WX    TMP DP  RH WIND       PRES   REMARKS
CRYSTAL RIVER  FAIR      77  75  94 CALM      30.08F                  
INVERNESS      FAIR      79  79 100 CALM      30.09F                  
BROOKSVILLE    FAIR      78  76  93 CALM      30.09F                  
CLEARWATER AIR FAIR      79  73  83 CALM      30.07F                  
ST PETE CLEARW FAIR      79  74  84 S5        30.07F                  
TAMPA INTL     MOCLDY    80  75  84 NE3       30.08F                  
PLANT CITY     FAIR      79  77  94 CALM      30.11F                  
MACDILL AFB    FAIR      79  75  89 E3        30.07F                  
PETER O KNIGHT CLOUDY   N/A N/A N/A E3        30.07F                  
ST PETERSBURG  FAIR      82  74  76 CALM      30.06F                  
SARASOTA       LGT RAIN  78  77  96 CALM      30.05S                  
VENICE         FAIR      77  77 100 NE3       30.08S                  

STATION/POSITION SKY/WX   TEMP    WIND        PRES    WAVE   SWELL
                          AIR SEA DIR/SP/G            HT/PER HT/PER
                          (F)     (DEG/KT/KT) (MB)    (FT/S) (FT/S)
27.3N   84.2W                 85                N/A     2/ 5
CLEARWATER BEACH           82 88   90/  4/  7 1019.1
MIDDLE TAMPA BAY           78     270/  5/  8 1018.8F
VENICE                     77 86   40/  4/  5 1018.4R

$$
FLZ066-069-070-075>078-162-262-165-265-220500-
SOUTHWEST FLORIDA AND KEYS
  
CITY           SKY/WX    TMP DP  RH WIND       PRES   REMARKS
PUNTA GORDA    FAIR      78  78 100 E3        30.09R                  
FT MYERS       FAIR      79  74  84 CALM      30.06S                  
SOUTHWEST INTL FAIR      80  74  81 CALM      30.07S                  
NAPLES         FAIR      79  76  90 CALM      30.06S                  
MARCO ISLAND   FAIR     N/A N/A N/A N3          N/A                   
IMMOKALEE      FAIR      77  77 100 CALM      30.05S                  
MARATHON       FAIR      84  72  67 E7        30.04R                  
KEY WEST NAS   FAIR      85  74  69 NE3       30.05R                  
KEY WEST INTL  FAIR      82  77  84 CALM      30.05R                  

STATION/POSITION SKY/WX   TEMP    WIND        PRES    WAVE   SWELL
                          AIR SEA DIR/SP/G            HT/PER HT/PER
                          (F)     (DEG/KT/KT) (MB)    (FT/S) (FT/S)
NAPLES                     79 88              1017.9F
26.0N   85.6W              84 86   CALM  /  2 1018.0R   3/ 6   3/ 6
DRY TORTUGAS               84     140/  2/  4 1017.9R
SAND KEY                   84     130/  5/  7 1016.5R
SOMBRERO KEY               85      80/  8/ 11 1017.6R
LONG KEY                   85                 1016.3R

$$
FLZ067-068-071>074-168-172>174-220500-
SOUTHEAST FLORIDA 
  
CITY           SKY/WX    TMP DP  RH WIND       PRES   REMARKS
W PALM BEACH   FAIR      83  73  72 E8        30.07S                  
FT LAUDER-EXEC FAIR      82  72  71 E8        30.05S                  
FT LAUDERDALE  FAIR      82  73  74 E8        30.04F                  
POMPANO BEACH  FAIR      84  72  67 E7        30.05F                  
PEMBROKE PINES FAIR      82  73  74 NE5       30.06F                  
OPA LOCKA      FAIR      83  73  72 NE5       30.06S                  
MIAMI          CLOUDY    83  73  72 E6        30.05S                  
WEST KENDALL   FAIR      82  75  79 NE6       30.05S                  
HOMESTEAD      FAIR      80  74  81 NE6       30.04S                  

STATION/POSITION SKY/WX   TEMP    WIND        PRES    WAVE   SWELL
                          AIR SEA DIR/SP/G            HT/PER HT/PER
                          (F)     (DEG/KT/KT) (MB)    (FT/S) (FT/S)
VIRGINIA KEY               83 89   50/  9/ 11 1017.3
LAKE WORTH                 83 86  110/  9/ 10 1019.2S
FOWEY ROCKS                83 86   70/ 11/ 12 1017.7R
SETTLEMENT POINT           83     110/ 13/ 15 1018.3F

$$